TimeMST,TemperatureF,Dew PointF,Humidity,Sea Level PressureIn,VisibilityMPH,Wind Direction,Wind SpeedMPH,Gust SpeedMPH,PrecipitationIn,Events,Conditions,WindDirDegrees,DateUTC
12:54 AM,61.0,55.9,83,29.98,10.0,Calm,Calm,-,0.00,,Overcast,0,2013-09-03 07:54:00
1:54 AM,57.0,54.0,89,29.99,10.0,Calm,Calm,-,N/A,,Scattered Clouds,0,2013-09-03 08:54:00
2:54 AM,62.1,48.9,62,29.96,10.0,East,3.5,-,N/A,,Mostly Cloudy,80,2013-09-03 09:54:00
3:54 AM,60.1,48.9,67,29.97,10.0,ENE,3.5,-,N/A,,Clear,70,2013-09-03 10:54:00
4:54 AM,55.9,48.9,77,29.97,10.0,Calm,Calm,-,N/A,,Clear,0,2013-09-03 11:54:00
5:54 AM,55.0,48.9,80,30.00,10.0,East,3.5,-,N/A,,Partly Cloudy,80,2013-09-03 12:54:00
6:54 AM,60.1,51.1,72,30.03,10.0,Calm,Calm,-,N/A,,Scattered Clouds,0,2013-09-03 13:54:00
7:54 AM,68.0,52.0,56,30.04,10.0,Calm,Calm,-,N/A,,Scattered Clouds,0,2013-09-03 14:54:00
8:54 AM,72.0,52.0,49,30.03,10.0,South,5.8,-,N/A,,Mostly Cloudy,170,2013-09-03 15:54:00
9:54 AM,75.0,53.1,46,30.04,10.0,Variable,3.5,-,N/A,,Clear,0,2013-09-03 16:54:00
10:54 AM,78.1,50.0,37,30.04,10.0,SW,11.5,-,N/A,,Partly Cloudy,220,2013-09-03 17:54:00
11:54 AM,79.0,50.0,36,30.02,10.0,SSW,8.1,-,N/A,,Partly Cloudy,210,2013-09-03 18:54:00
12:54 PM,80.1,50.0,35,30.00,10.0,SSW,5.8,19.6,N/A,,Partly Cloudy,210,2013-09-03 19:54:00
1:54 PM,78.1,48.9,36,30.01,10.0,South,9.2,-,N/A,,Scattered Clouds,190,2013-09-03 20:54:00
2:54 PM,82.0,46.9,29,29.95,10.0,South,5.8,-,N/A,,Scattered Clouds,190,2013-09-03 21:54:00
3:54 PM,81.0,46.0,29,29.95,10.0,Variable,5.8,20.7,N/A,,Scattered Clouds,0,2013-09-03 22:54:00
4:54 PM,77.0,51.1,40,29.97,10.0,East,5.8,-,N/A,,Scattered Clouds,90,2013-09-03 23:54:00
5:54 PM,75.9,50.0,40,29.99,10.0,East,3.5,-,N/A,,Clear,100,2013-09-04 00:54:00
6:54 PM,68.0,57.0,68,30.01,10.0,Calm,Calm,-,N/A,,Clear,0,2013-09-04 01:54:00
7:54 PM,64.9,55.9,73,30.00,10.0,Calm,Calm,-,N/A,,Clear,0,2013-09-04 02:54:00
8:54 PM,62.1,55.9,80,30.02,10.0,ENE,3.5,-,N/A,,Clear,60,2013-09-04 03:54:00
9:54 PM,63.0,55.9,78,30.02,10.0,Calm,Calm,-,N/A,,Clear,0,2013-09-04 04:54:00
10:54 PM,60.1,55.0,83,30.02,10.0,Calm,Calm,-,N/A,,Clear,0,2013-09-04 05:54:00
11:54 PM,57.9,54.0,87,30.02,10.0,Calm,Calm,-,N/A,,Clear,0,2013-09-04 06:54:00